Home   Weather   Ballarat   Past weeks

Flag for Australia Past Weather in Ballarat, Victoria, Australia — Yesterday and Last 2 Weeks

Now
57 °F

Cool.


Feels Like: 57 °F
Forecast: 41 / 50 °F
Wind: 2 mph from North

Location: Sheoaks Aws

Current Time: Apr 25, 2017 at 8:34:03 pm

Latest Report: Apr 25, 2017 at 6:00 pm


Visibility: N/A

Pressure: 29.70 "Hg

Humidity: 80%

Dew Point: 51 °F

Location of BallaratLocation

Past Weather in Ballarat — Graph

°F

Ballarat Temperature Yesterday

Maximum temperature yesterday: 68 °F (at 3:00 pm)
Minimum temperature yesterday: 57 °F (at 12:00 am)
Average temperature yesterday: 61 °F

High & Low Weather Summary for the Past Weeks

 TemperatureHumidityPressure
High80 °F (Apr 19, 2:00 pm)100% (Apr 18, 9:00 am)30.35 "Hg (Apr 18, 9:00 am)
Low40 °F (Apr 15, 5:00 am)30% (Apr 19, 2:00 pm)29.70 "Hg (Apr 25, 6:00 pm)
Average58 °F81%30.18 "Hg
* Reported Apr 10 6:00 pm — Apr 25 6:00 pm, Ballarat, Weather by CustomWeather, © 2017

Note: Actual official high and low records may vary slightly from our data, if they occured in-between our weather recording intervals... More about our weather records

Advertising

Ballarat Weather History for the Previous 24 Hours

Scroll right to see more
 ConditionsComfort  
Time TempWeatherWind HumidityBarometerVisibility
6:00 pm
Tue, Apr 25
57 °FCool.2 mph80%29.70 "HgN/A
5:00 pm62 °FCool.5 mph70%29.72 "HgN/A
3:00 pm61 °FCool.8 mph75%29.73 "HgN/A
2:00 pm60 °FCool.10 mph77%29.74 "HgN/A
12:00 pm60 °FCool.9 mph80%29.78 "HgN/A
11:00 am58 °FCool.8 mph90%29.79 "HgN/A
9:00 am58 °FCool.10 mph98%29.78 "HgN/A
8:00 am57 °FCool.12 mph99%29.78 "HgN/A
6:00 am58 °FCool.14 mph98%29.74 "HgN/A
5:00 am60 °FCool.7 mph100%29.73 "HgN/A
3:00 am58 °FFog.No wind100%29.76 "HgN/A
2:00 am58 °FCool.1 mph100%29.79 "HgN/A
12:00 am58 °FCool.2 mph100%29.85 "HgN/A
11:00 pm
Mon, Apr 24
58 °FCool.2 mph100%29.89 "HgN/A
9:00 pm58 °FFog.5 mph99%29.89 "HgN/A
8:00 pm59 °FCool.6 mph98%29.92 "HgN/A
Weather by CustomWeather, © 2017

See weather overviewHow to use our weather pages